GW4551 Weather Reports


Display with metric or nautical units.
time (UTC)temp
F
wind
direction
speed
MPH
gust
MPH
rain 1hr
in
rain 24hr
in
rain mn
in
humidity
%
barometer
mb
20260506212534 48 25 2.0 4.0 0.00 0.00 0.00 69 1014.8
20260506211609 48 31 2.0 3.0 0.00 0.00 0.00 69 1014.9
20260506210524 49 30 2.0 4.0 0.00 0.00 0.00 68 1014.7
20260506205519 49 20 2.0 3.0 0.00 0.00 0.00 67 1014.7
20260506204534 50 0 1.0 2.0 0.00 0.00 0.00 66 1014.7
20260506203528 50 354 1.0 2.0 0.00 0.00 0.00 66 1014.6
20260506202523 50 355 1.0 2.0 0.00 0.00 0.00 66 1014.5
20260506201518 50 344 1.0 3.0 0.00 0.00 0.00 65 1014.4
20260506200534 50 359 1.0 2.0 0.00 0.00 0.00 65 1014.4
20260506195529 51 350 2.0 3.0 0.00 0.00 0.00 65 1014.4
20260506194526 51 350 2.0 4.0 0.00 0.00 0.00 64 1014.2
20260506193520 51 338 2.0 4.0 0.00 0.00 0.00 63 1014.1
20260506192534 51 339 2.0 3.0 0.00 0.00 0.00 63 1014.0
20260506191528 51 340 4.0 6.0 0.00 0.00 0.00 62 1014.0
20260506190517 52 336 4.0 7.0 0.00 0.00 0.00 62 1013.9
20260506185533 52 337 4.0 8.0 0.00 0.00 0.00 62 1013.7
20260506184529 52 328 5.0 7.0 0.00 0.00 0.00 62 1013.7
20260506183525 52 331 3.0 6.0 0.00 0.00 0.00 63 1013.6
20260506182520 52 330 4.0 8.0 0.00 0.00 0.00 62 1013.7
20260506181537 53 335 3.0 4.0 0.00 0.00 0.00 62 1013.6
20260506180532 53 342 3.0 6.0 0.00 0.00 0.00 61 1013.4
20260506175608 53 352 3.0 6.0 0.00 0.00 0.00 60 1013.3
20260506174524 53 329 5.0 7.0 0.00 0.00 0.00 60 1013.1
20260506173520 53 315 3.0 6.0 0.00 0.00 0.00 60 1013.2
20260506172516 53 323 3.0 6.0 0.00 0.00 0.00 59 1013.1
20260506171531 53 328 3.0 6.0 0.00 0.00 0.00 60 1013.1
20260506170607 54 330 2.0 4.0 0.00 0.00 0.00 59 1013.1
20260506165522 54 347 4.0 6.0 0.00 0.00 0.00 60 1013.2
20260506164518 54 345 3.0 7.0 0.00 0.00 0.00 57 1013.1
20260506163614 55 343 4.0 8.0 0.00 0.00 0.00 56 1013.1
20260506162530 55 3 4.0 9.0 0.00 0.00 0.00 56 1013.1
20260506161526 56 3 5.0 8.0 0.00 0.00 0.00 56 1013.1
20260506160522 55 346 5.0 10.0 0.00 0.00 0.00 55 1013.0
20260506155518 55 3 4.0 8.0 0.00 0.00 0.00 54 1013.2
20260506154534 55 19 4.0 9.0 0.00 0.00 0.00 53 1013.2
20260506153609 55 26 6.0 10.0 0.00 0.00 0.00 55 1013.1
20260506152605 56 12 7.0 10.0 0.00 0.00 0.00 54 1013.2
20260506151602 55 20 5.0 15.0 0.00 0.00 0.00 53 1013.1
20260506150517 56 26 7.0 13.0 0.00 0.00 0.00 50 1013.1
20260506145534 56 7 5.0 9.0 0.00 0.00 0.00 52 1013.2
20260506144530 55 6 6.0 11.0 0.00 0.00 0.00 53 1013.1
20260506143526 57 9 7.0 13.0 0.00 0.00 0.00 50 1013.1
20260506142522 55 333 7.0 11.0 0.00 0.00 0.00 52 1013.0
20260506141518 55 348 7.0 11.0 0.00 0.00 0.00 51 1013.1
20260506140534 57 32 4.0 7.0 0.00 0.00 0.00 49 1013.0
20260506135530 56 332 6.0 10.0 0.00 0.00 0.00 52 1013.1
20260506134526 57 337 8.0 11.0 0.00 0.00 0.00 48 1013.0
20260506133521 56 329 8.0 15.0 0.00 0.00 0.00 51 1013.1
20260506132517 55 39 5.0 11.0 0.00 0.00 0.00 53 1013.0
20260506131533 56 319 8.0 13.0 0.00 0.00 0.00 51 1013.0
20260506130529 56 345 8.0 14.0 0.00 0.00 0.00 49 1013.2
20260506125524 56 343 5.0 11.0 0.00 0.00 0.00 51 1013.2
20260506124520 55 328 6.0 13.0 0.00 0.00 0.00 53 1013.2
20260506123616 56 3 6.0 10.0 0.00 0.00 0.00 50 1013.2
20260506122531 56 1 8.0 14.0 0.00 0.00 0.00 51 1013.2
20260506121528 55 14 7.0 14.0 0.00 0.00 0.00 51 1013.3
20260506120524 55 341 9.0 19.0 0.00 0.00 0.00 52 1013.2
20260506115519 55 334 7.0 15.0 0.00 0.00 0.00 56 1013.3
20260506114534 55 333 6.0 10.0 0.00 0.00 0.00 57 1013.3
20260506113530 55 354 7.0 14.0 0.00 0.00 0.00 57 1013.3
20260506112526 55 14 6.0 10.0 0.00 0.00 0.00 57 1013.5
20260506111521 54 336 6.0 11.0 0.00 0.00 0.00 58 1013.4
20260506110517 54 343 6.0 13.0 0.00 0.00 0.00 57 1013.5
20260506105533 53 348 9.0 13.0 0.00 0.00 0.00 58 1013.5
20260506104529 54 351 6.0 14.0 0.00 0.00 0.00 55 1013.5
20260506103525 53 1 7.0 9.0 0.00 0.00 0.00 57 1013.5
20260506102520 53 323 7.0 11.0 0.00 0.00 0.00 57 1013.4
20260506101516 52 336 7.0 13.0 0.00 0.00 0.00 58 1013.4
20260506100532 52 327 8.0 14.0 0.00 0.00 0.00 59 1013.6
20260506095528 52 343 7.0 17.0 0.00 0.00 0.00 59 1013.5
20260506094524 52 337 7.0 13.0 0.00 0.00 0.00 60 1013.4
20260506093520 52 348 6.0 10.0 0.00 0.00 0.00 61 1013.5
20260506092535 52 24 7.0 11.0 0.00 0.00 0.00 59 1013.4
20260506091532 51 341 7.0 14.0 0.00 0.00 0.00 61 1013.5
20260506090527 51 14 5.0 9.0 0.00 0.00 0.00 64 1013.4
20260506085523 50 348 6.0 11.0 0.00 0.00 0.00 67 1013.5
20260506084519 50 332 6.0 11.0 0.00 0.00 0.00 69 1013.4
20260506083535 50 1 6.0 9.0 0.00 0.00 0.00 68 1013.4
20260506082531 50 30 6.0 11.0 0.00 0.00 0.00 69 1013.5
20260506081527 49 356 6.0 10.0 0.00 0.00 0.00 69 1013.5
20260506080603 49 343 6.0 9.0 0.00 0.00 0.00 72 1013.5
20260506072524 47 343 5.0 10.0 0.00 0.00 0.00 75 1013.5
20260506071521 47 3 7.0 13.0 0.00 0.00 0.00 74 1013.4
20260506070517 46 355 4.0 9.0 0.00 0.00 0.00 77 1013.2
20260506061535 45 345 5.0 9.0 0.00 0.00 0.00 80 1013.1
20260506060530 45 341 5.0 9.0 0.00 0.00 0.00 82 1012.9
20260506050524 45 358 4.0 9.0 0.00 0.00 0.00 81 1012.8
20260506044516 46 23 4.0 6.0 0.00 0.00 0.00 82 1012.8
20260506043533 46 17 5.0 10.0 0.00 0.00 0.00 82 1012.8
20260506042528 46 348 4.0 10.0 0.00 0.00 0.00 84 1012.7
20260506041604 46 4 3.0 9.0 0.00 0.00 0.00 84 1012.6
20260506040520 46 11 3.0 7.0 0.00 0.00 0.00 83 1012.7
20260506035556 46 14 4.0 8.0 0.00 0.00 0.00 82 1012.6
20260506034532 47 18 6.0 11.0 0.00 0.00 0.00 82 1012.6
20260506033528 47 4 4.0 8.0 0.00 0.00 0.00 82 1012.5
20260506032522 47 22 4.0 9.0 0.00 0.00 0.00 82 1012.5
20260506031518 47 8 5.0 10.0 0.00 0.00 0.00 82 1012.6
20260506030535 47 14 4.0 8.0 0.00 0.00 0.00 83 1012.7
20260506025531 47 33 5.0 11.0 0.00 0.00 0.00 83 1012.6
20260506024526 47 11 2.0 6.0 0.00 0.00 0.00 84 1012.6
20260506023521 48 13 4.0 8.0 0.00 0.00 0.00 83 1012.6
20260506022517 48 19 3.0 7.0 0.00 0.00 0.00 83 1012.5
20260506021534 48 4 2.0 4.0 0.00 0.00 0.00 81 1012.7
20260506020529 48 26 3.0 7.0 0.00 0.00 0.00 81 1012.7
20260506015524 48 15 4.0 7.0 0.00 0.00 0.00 80 1012.7
20260506014520 48 15 3.0 6.0 0.00 0.00 0.00 79 1012.8
20260506013516 49 41 4.0 9.0 0.00 0.00 0.00 78 1012.8
20260506012532 49 46 6.0 11.0 0.00 0.00 0.00 77 1012.7
20260506011528 49 42 6.0 8.0 0.00 0.00 0.00 77 1012.9
20260506010525 49 42 6.0 8.0 0.00 0.00 0.00 76 1012.8
20260506005520 49 30 6.0 9.0 0.00 0.00 0.00 76 1012.9
20260506004516 49 24 6.0 10.0 0.00 0.00 0.00 77 1012.9
20260506003612 50 20 5.0 10.0 0.00 0.00 0.00 78 1012.9
20260506002529 50 23 5.0 8.0 0.00 0.00 0.00 78 1012.9
20260506001524 50 30 6.0 10.0 0.00 0.00 0.00 78 1013.0
20260506000520 50 26 3.0 7.0 0.00 0.00 0.00 80 1012.9
20260505235535 50 51 4.0 8.0 0.00 0.00 0.00 79 1012.8
20260505234532 51 66 4.0 8.0 0.00 0.00 0.00 79 1013.0
20260505233528 50 59 4.0 7.0 0.00 0.00 0.00 80 1012.9
20260505232523 50 52 4.0 7.0 0.00 0.00 0.00 81 1012.9
20260505231518 51 48 4.0 6.0 0.00 0.00 0.00 80 1012.9
20260505230534 51 64 3.0 8.0 0.00 0.00 0.00 78 1012.9
20260505225529 52 27 4.0 7.0 0.00 0.00 0.00 75 1012.9
20260505224524 52 22 3.0 6.0 0.00 0.00 0.00 74 1012.9
20260505223519 52 20 3.0 7.0 0.00 0.00 0.00 73 1012.8
20260505222535 52 27 4.0 7.0 0.00 0.00 0.00 73 1012.6
20260505221610 53 20 4.0 8.0 0.00 0.00 0.00 72 1012.6
20260505220525 53 31 5.0 9.0 0.00 0.00 0.00 72 1012.5
20260505215521 53 12 4.0 8.0 0.00 0.00 0.00 71 1012.6
20260505214516 53 26 5.0 9.0 0.00 0.00 0.00 71 1012.6
20260505213533 53 17 5.0 11.0 0.00 0.00 0.00 71 1012.6